Regional Weather Roundup
Issued by NWS

Home | Current Version | Previous Version | Graphics & Text | Print | Product List | Glossary On
Versions: 1 2 3 4 5 6 7 8 9 10 11 12 13 14 15 16 17 18 19 20 21 22 23 24 25 26 27 28 29 30 31 32 33 34 35 36 37 38 39 40 41 42 43 44 45 46 47 48 49 50
000
ASUS43 KFSD 301310
RWRSD

WEATHER ROUNDUP FOR SOUTH DAKOTA
NATIONAL WEATHER SERVICE SIOUX FALLS SD
800 AM CDT THU MAR 30 2017

NOTE: "FAIR" INDICATES FEW OR NO CLOUDS BELOW 12,000 FEET WITH NO
SIGNIFICANT WEATHER AND/OR OBSTRUCTIONS TO VISIBILITY.


SDZ001>005-009-010-012>017-301400-
NORTHWEST AND NORTH CENTRAL SOUTH DAKOTA

CITY           SKY/WX    TMP DP  RH WIND       PRES   REMARKS
BUFFALO          N/A     42  39  89 S8        29.69F
FAITH            N/A     33  33 100 MISG      29.79F
MOBRIDGE       CLOUDY    33  29  85 S3        29.85S
$$

SDZ012>016-024>037-041>051-057-063-072>074-301400-
SOUTHWEST AND SOUTH CENTRAL SOUTH DAKOTA

CITY           SKY/WX    TMP DP  RH WIND       PRES   REMARKS
RAPID CTY ARPT FOG       33  32  96 SE6       29.77S VSB<1/4 WCI  28
PIERRE         CLOUDY    36  34  92 SE5       29.86F
CUSTER         CLOUDY    33  31  92 NW3       29.78F
ELLSWORTH AFB  CLOUDY    37  37 100 CALM      29.76S
PHILIP         FOG       31  31 100 SE8       29.84S VSB 1/4 WCI  23
PINE RIDGE     CLOUDY    28  27  96 E3        29.79F
SPEARFISH      FAIR      41  34  75 S6        29.76S
WINNER         CLOUDY    39  36  89 E6        29.86S
$$

SDZ004>011-016>023-039-040-301400-
NORTHEAST SOUTH DAKOTA

CITY           SKY/WX    TMP DP  RH WIND       PRES   REMARKS
ABERDEEN       CLOUDY    35  32  88 NE3       29.92S
WATERTOWN      CLOUDY    37  35  92 E12G18    29.88F
BROOKINGS      CLOUDY    37  34  89 E16       29.86F
SISSETON         N/A     39  38  96 SE6       29.92S
$$

SDZ017-020-022-023-036>040-048>070-301400-
SOUTHEAST SOUTH DAKOTA

CITY           SKY/WX    TMP DP  RH WIND       PRES   REMARKS
SIOUX FALLS    CLOUDY    39  38  96 NE14      29.85F
HURON          CLOUDY    39  37  92 E7        29.88F
CHAMBERLAIN    CLOUDY    40  38  95 CALM      29.88R
MITCHELL       CLOUDY    40  36  86 E9        29.88F
YANKTON        CLOUDY    39  36  87 N13       29.84S
$$

ABBREVIATIONS USED IN REMARKS
   TC - TEMPERATURE IN CELSIUS
  WCI - WIND CHILL INDEX
   HX - HEAT INDEX
  VSB - VISIBILITY





USA.gov is the U.S. government's official web portal to all federal, state and local government web resources and services.